This demonstration page uses our WeatherBlox Daily Observations layout. Learn more.

Left ArrowRight Arrow

Hourly Observations for December 7, 2019

Temp ( °F °C ) Dew Point ( °F °C ) Humidity (%) Winds ( mph kmh ) Pressure ( in mb ) Visibility ( mi km ) Precip ( " mm )
12:52 am 00:52 Clear 26 -3.3 22 -5.6 84 84 SSE 10 17 30.32 1027 10 16 0.00 0.00
1:52 am 01:52 Clear 25 -3.9 21 -6.1 85 85 SSE 10 17 30.32 1027 10 16 0.00 0.00
2:52 am 02:52 Clear 26 -3.3 21 -6.1 81 81 SSE 10 17 30.29 1026 10 16 0.00 0.00
3:52 am 03:52 Clear 26 -3.3 22 -5.6 84 84 SSE 10 17 30.28 1025 10 16 0.00 0.00
4:52 am 04:52 Clear 26 -3.3 23 -5 88 88 SSE 10 17 30.26 1025 10 16 0.00 0.00
5:52 am 05:52 Mostly Clear 27 -2.8 23 -5 85 85 SSE 13 20 30.26 1025 10 16 0.00 0.00
6:52 am 06:52 Mostly Clear 27 -2.8 23 -5 85 85 SSE 12 19 30.24 1024 10 16 0.00 0.00
7:52 am 07:52 Partly Cloudy 28 -2.2 23 -5 81 81 SSE 12 19 30.24 1024 10 16 0.00 0.00
8:52 am 08:52 Partly Cloudy 32 0 23 -5 69 69 S 14 22 30.21 1023 10 16 0.00 0.00
9:52 am 09:52 Mostly Cloudy 35 1.7 25 -3.9 67 67 S 10 17 30.21 1023 10 16 0.00 0.00
10:52 am 10:52 Mostly Cloudy 39 3.9 26 -3.3 60 60 S 13 20 30.19 1022 10 16 0.00 0.00
11:52 am 11:52 Mostly Cloudy 43 6.1 27 -2.8 53 53 S 16 26 30.15 1021 10 16 0.00 0.00
12:52 pm 12:52 Partly Cloudy 47 8.3 29 -1.7 50 50 SSE 15 24 30.10 1019 10 16 0.00 0.00
1:52 pm 13:52 Mostly Sunny 50 10 29 -1.7 44 44 S 17 28 30.07 1018 10 16 0.00 0.00
2:52 pm 14:52 Mostly Sunny 51 10.6 28 -2.2 41 41 S 20 31 30.02 1017 10 16 0.00 0.00
3:52 pm 15:52 Mostly Cloudy 50 10 27 -2.8 41 41 SSE 20 31 30.01 1016 10 16 0.00 0.00
4:52 pm 16:52 Mostly Cloudy 48 8.9 27 -2.8 44 44 SSE 17 28 29.98 1015 10 16 0.00 0.00
5:52 pm 17:52 Mostly Cloudy 46 7.8 27 -2.8 47 47 S 22 35 29.96 1015 10 16 0.00 0.00
6:52 pm 18:52 Partly Cloudy 45 7.2 28 -2.2 52 52 S 24 39 29.96 1014 10 16 0.00 0.00
7:52 pm 19:52 Clear 44 6.7 28 -2.2 53 53 S 21 33 29.95 1014 10 16 0.00 0.00
8:52 pm 20:52 Mostly Clear 42 5.6 28 -2.2 58 58 S 14 22 29.95 1014 10 16 0.00 0.00
9:52 pm 21:52 Mostly Cloudy 43 6.1 28 -2.2 56 56 S 21 33 29.92 1013 10 16 0.00 0.00
10:52 pm 22:52 Mostly Cloudy 42 5.6 27 -2.8 55 55 S 20 31 29.91 1013 10 16 0.00 0.00
11:52 pm 23:52 Mostly Cloudy 41 5 27 -2.8 57 57 S 13 20 29.89 1012 10 16 0.00 0.00

Powered by AerisWeather